When you browse on this site, cookies collect data to enhance your experience and personalize the content and advertising you see.
Visit our Privacy Policy to learn more. By continuing to use the site, you agree to this use of cookies and data.
  • In Hungary
  • List of Countries
  • For 7 days
  • Water Temperature
  • Weather Map
  • News
  • Weather Widgets
  • user-avatar
    Login

    Hourly Weather Duitama

    Today, 29 March, Sunday

    Time Temperature Precipitation Wind Pressure Humidity
    00:00 +12°C° 0.1 mm 1 mps 555 mmHg 93%
    01:00 +12°C° 0 mm 1 mps 555 mmHg 96%
    02:00 +11°C° 0 mm 1 mps 555 mmHg 94%
    03:00 +11°C° 0 mm 1 mps 555 mmHg 93%
    04:00 +11°C° 0 mm 1 mps 554 mmHg 92%
    05:00 +11°C° 0 mm 1 mps 555 mmHg 89%
    06:00 +11°C° 0 mm 1 mps 555 mmHg 86%
    07:00 +12°C° 0 mm 1 mps 556 mmHg 86%
    08:00 +15°C° 0 mm 1 mps 558 mmHg 74%
    09:00 +18°C° 0 mm 1 mps 559 mmHg 61%
    10:00 +21°C° 0 mm 1 mps 561 mmHg 49%
    11:00 +22°C° 0 mm 1 mps 561 mmHg 47%
    12:00 +23°C° 0 mm 1 mps 561 mmHg 45%
    13:00 +24°C° 0 mm 1 mps 560 mmHg 44%
    14:00 +23°C° 0.1 mm 1 mps 559 mmHg 51%
    15:00 +22°C° 0.1 mm 1 mps 558 mmHg 59%
    16:00 +21°C° 0.1 mm 1 mps 557 mmHg 66%
    17:00 +19°C° 0.4 mm 1 mps 557 mmHg 75%
    18:00 +16°C° 0.4 mm 1 mps 557 mmHg 84%
    19:00 +15°C° 0.4 mm 1 mps 556 mmHg 92%
    20:00 +14°C° 0.1 mm 1 mps 557 mmHg 92%
    21:00 +14°C° 0.1 mm 1 mps 557 mmHg 93%
    22:00 +13°C° 0.1 mm 1 mps 557 mmHg 93%
    23:00 +13°C° 0 mm 1 mps 557 mmHg 93%

    Tomorrow, 30 March, Monday

    Time Temperature Precipitation Wind Pressure Humidity
    00:00 +13°C° 0 mm 1 mps 556 mmHg 93%
    01:00 +12°C° 0 mm 1 mps 556 mmHg 94%
    02:00 +12°C° 0 mm 1 mps 556 mmHg 94%
    03:00 +12°C° 0 mm 1 mps 555 mmHg 94%
    04:00 +12°C° 0 mm 1 mps 555 mmHg 94%
    05:00 +12°C° 0 mm 1 mps 556 mmHg 93%
    06:00 +13°C° 0 mm 1 mps 556 mmHg 92%
    07:00 +13°C° 0 mm 1 mps 557 mmHg 90%
    08:00 +15°C° 0 mm 1 mps 558 mmHg 82%
    09:00 +19°C° 0 mm 1 mps 560 mmHg 73%
    10:00 +21°C° 0 mm 1 mps 561 mmHg 65%
    11:00 +21°C° 0.4 mm 1 mps 560 mmHg 67%
    12:00 +21°C° 0.4 mm 1 mps 560 mmHg 70%
    13:00 +20°C° 0.4 mm 2 mps 559 mmHg 73%
    14:00 +20°C° 0.9 mm 1 mps 558 mmHg 76%
    15:00 +19°C° 0.9 mm 1 mps 557 mmHg 79%
    16:00 +19°C° 0.9 mm 1 mps 556 mmHg 82%
    17:00 +18°C° 0.7 mm 1 mps 556 mmHg 86%
    18:00 +16°C° 0.7 mm 1 mps 556 mmHg 89%
    19:00 +15°C° 0.7 mm 1 mps 556 mmHg 93%
    20:00 +14°C° 0.3 mm 1 mps 556 mmHg 94%
    21:00 +14°C° 0.3 mm 1 mps 556 mmHg 94%
    22:00 +13°C° 0.3 mm 1 mps 556 mmHg 95%
    23:00 +13°C° 0.1 mm 1 mps 556 mmHg 95%

    Day after tomorrow, 31 March, Tuesday

    Time Temperature Precipitation Wind Pressure Humidity
    00:00 +13°C° 0.1 mm 1 mps 556 mmHg 95%
    01:00 +13°C° 0.1 mm 1 mps 555 mmHg 95%
    02:00 +13°C° 0 mm 1 mps 555 mmHg 95%
    03:00 +12°C° 0 mm 1 mps 555 mmHg 95%
    04:00 +12°C° 0 mm 1 mps 555 mmHg 95%
    05:00 +13°C° 0 mm 1 mps 555 mmHg 93%
    06:00 +13°C° 0 mm 1 mps 556 mmHg 92%
    07:00 +14°C° 0 mm 1 mps 556 mmHg 90%
    08:00 +16°C° 0 mm 1 mps 558 mmHg 82%
    09:00 +19°C° 0 mm 1 mps 559 mmHg 74%
    10:00 +21°C° 0 mm 1 mps 560 mmHg 66%
    11:00 +21°C° 0.6 mm 1 mps 560 mmHg 68%
    12:00 +22°C° 0.6 mm 1 mps 559 mmHg 70%
    13:00 +22°C° 0.6 mm 1 mps 558 mmHg 71%
    14:00 +21°C° 1.7 mm 1 mps 558 mmHg 75%
    15:00 +20°C° 1.7 mm 1 mps 557 mmHg 79%
    16:00 +19°C° 1.7 mm 1 mps 556 mmHg 83%
    17:00 +18°C° 1.7 mm 1 mps 556 mmHg 87%
    18:00 +16°C° 1.7 mm 1 mps 556 mmHg 90%
    19:00 +15°C° 1.7 mm 1 mps 556 mmHg 94%
    20:00 +15°C° 1.3 mm 1 mps 556 mmHg 94%
    21:00 +15°C° 1.3 mm 1 mps 556 mmHg 95%
    22:00 +14°C° 1.3 mm 0 mps 557 mmHg 95%
    23:00 +13°C° 0.6 mm 0 mps 556 mmHg 95%

    1 April, Wednesday

    Time Temperature Precipitation Wind Pressure Humidity
    00:00 +13°C° 0.6 mm 0 mps 556 mmHg 96%
    01:00 +13°C° 0.6 mm 0 mps 555 mmHg 96%
    02:00 +13°C° 0.1 mm 0 mps 555 mmHg 95%
    03:00 +12°C° 0.1 mm 0 mps 555 mmHg 95%
    04:00 +12°C° 0.1 mm 0 mps 555 mmHg 95%
    05:00 +12°C° 0.1 mm 0 mps 555 mmHg 94%
    06:00 +13°C° 0.1 mm 0 mps 556 mmHg 92%
    07:00 +13°C° 0.1 mm 0 mps 557 mmHg 91%
    08:00 +15°C° 0.4 mm 0 mps 558 mmHg 87%
    09:00 +16°C° 0.4 mm 0 mps 559 mmHg 82%
    10:00 +20°C° 0.4 mm 1 mps 560 mmHg 77%
    11:00 +19°C° 1.3 mm 1 mps 559 mmHg 80%
    12:00 +19°C° 1.3 mm 1 mps 558 mmHg 83%
    13:00 +17°C° 1.3 mm 2 mps 557 mmHg 86%
    14:00 +18°C° 1.5 mm 1 mps 557 mmHg 88%
    15:00 +16°C° 1.5 mm 1 mps 556 mmHg 89%
    16:00 +15°C° 1.5 mm 0 mps 556 mmHg 91%
    17:00 +14°C° 0.6 mm 0 mps 556 mmHg 92%
    18:00 +14°C° 0.6 mm 0 mps 556 mmHg 94%
    19:00 +13°C° 0.6 mm 0 mps 556 mmHg 96%
    20:00 +13°C° 0.1 mm 0 mps 556 mmHg 96%
    21:00 +12°C° 0.1 mm 0 mps 556 mmHg 96%
    22:00 +12°C° 0.1 mm 0 mps 557 mmHg 96%
    23:00 +12°C° 0.1 mm 0 mps 556 mmHg 96%

    2 April, Thursday

    Time Temperature Precipitation Wind Pressure Humidity
    00:00 +12°C° 0.1 mm 0 mps 556 mmHg 96%
    01:00 +12°C° 0.1 mm 0 mps 556 mmHg 96%
    02:00 +12°C° 0.5 mm 0 mps 556 mmHg 96%
    03:00 +12°C° 0.5 mm 0 mps 556 mmHg 96%
    04:00 +12°C° 0.5 mm 0 mps 556 mmHg 96%
    05:00 +12°C° 0.4 mm 0 mps 557 mmHg 96%
    06:00 +14°C° 0.4 mm 1 mps 557 mmHg 95%
    07:00 +14°C° 0.4 mm 1 mps 558 mmHg 94%
    08:00 +15°C° 0.3 mm 1 mps 558 mmHg 90%
    09:00 +16°C° 0.3 mm 1 mps 559 mmHg 85%
    10:00 +18°C° 0.3 mm 1 mps 560 mmHg 81%
    11:00 +19°C° 0.8 mm 1 mps 560 mmHg 79%
    12:00 +20°C° 0.8 mm 1 mps 559 mmHg 77%
    13:00 +21°C° 0.8 mm 1 mps 559 mmHg 75%
    14:00 +20°C° 1.8 mm 1 mps 559 mmHg 78%
    15:00 +20°C° 1.8 mm 1 mps 558 mmHg 81%
    16:00 +19°C° 1.8 mm 1 mps 557 mmHg 85%
    17:00 +18°C° 1.3 mm 1 mps 557 mmHg 88%
    18:00 +15°C° 1.3 mm 0 mps 557 mmHg 92%
    19:00 +14°C° 1.3 mm 0 mps 557 mmHg 95%
    20:00 +14°C° 1.8 mm 0 mps 557 mmHg 95%
    21:00 +14°C° 1.8 mm 0 mps 558 mmHg 95%
    22:00 +14°C° 1.8 mm 1 mps 558 mmHg 96%
    23:00 +13°C° 1.6 mm 0 mps 558 mmHg 96%

    3 April, Friday

    Time Temperature Precipitation Wind Pressure Humidity
    00:00 +13°C° 1.6 mm 0 mps 557 mmHg 96%
    01:00 +13°C° 1.6 mm 0 mps 557 mmHg 96%
    02:00 +13°C° 0.2 mm 0 mps 557 mmHg 96%
    03:00 +13°C° 0.2 mm 0 mps 557 mmHg 95%
    04:00 +12°C° 0.2 mm 0 mps 556 mmHg 95%
    05:00 +13°C° 0 mm 0 mps 557 mmHg 94%
    06:00 +13°C° 0 mm 0 mps 557 mmHg 93%
    07:00 +13°C° 0 mm 0 mps 558 mmHg 92%
    08:00 +15°C° 0.3 mm 0 mps 559 mmHg 87%
    09:00 +17°C° 0.3 mm 0 mps 560 mmHg 82%
    10:00 +18°C° 0.3 mm 0 mps 561 mmHg 77%
    11:00 +20°C° 1.4 mm 1 mps 561 mmHg 79%
    12:00 +20°C° 1.4 mm 1 mps 560 mmHg 81%
    13:00 +20°C° 1.4 mm 1 mps 559 mmHg 83%
    14:00 +19°C° 1.8 mm 1 mps 559 mmHg 84%
    15:00 +19°C° 1.8 mm 1 mps 558 mmHg 85%
    16:00 +19°C° 1.8 mm 1 mps 557 mmHg 86%
    17:00 +18°C° 1.3 mm 1 mps 557 mmHg 89%
    18:00 +15°C° 1.3 mm 0 mps 557 mmHg 91%
    19:00 +14°C° 1.3 mm 0 mps 557 mmHg 94%
    20:00 +14°C° 0.5 mm 0 mps 558 mmHg 94%
    21:00 +14°C° 0.5 mm 0 mps 558 mmHg 95%
    22:00 +13°C° 0.5 mm 0 mps 558 mmHg 95%
    23:00 +13°C° 0.2 mm 0 mps 558 mmHg 95%
    Show more